This demonstration page uses our WeatherBlox Daily Observations layout. Learn more.

Left ArrowRight Arrow

Hourly Observations for May 15, 2017

Temp ( °F °C ) Dew Point ( °F °C ) Humidity (%) Winds ( mph kmh ) Pressure ( in mb ) Visibility ( mi km ) Precip ( " mm )
12:15 am 00:15 Clear 65 18.3 54 12.3 68 68 ENE 9 15 29.71 1006 10 16 N/A
12:35 am 00:35 Clear 66 18.9 54 12.4 66 66 ENE 10 17 29.71 1006 10 16 N/A
12:55 am 00:55 Clear 66 18.8 55 12.5 67 67 E 8 13 29.71 1006 10 16 N/A
1:15 am 01:15 Clear 63 17.1 54 12.1 73 73 ENE 10 17 29.74 1007 10 16 N/A
1:35 am 01:35 Clear 63 17.2 54 12.1 72 72 ENE 8 13 29.74 1007 10 16 N/A
1:55 am 01:55 Clear 64 17.7 54 12.3 71 71 E 9 15 29.71 1006 10 16 N/A
2:15 am 02:15 Clear 64 17.6 54 12.2 71 71 E 9 15 29.71 1006 10 16 N/A
2:35 am 02:35 Clear 64 17.9 54 12.4 70 70 E 8 13 29.71 1006 10 16 N/A
2:55 am 02:55 Clear 64 17.7 54 12.2 70 70 ESE 3 6 29.71 1006 10 16 N/A
3:15 am 03:15 Clear 63 17 54 12.2 74 74 E 6 9 29.74 1007 10 16 N/A
3:35 am 03:35 Clear 62 16.6 54 12.3 76 76 E 6 9 29.74 1007 10 16 N/A
3:55 am 03:55 Clear 62 16.7 55 12.5 76 76 E 9 15 29.74 1007 10 16 N/A
4:15 am 04:15 Clear 62 16.6 54 12.4 76 76 ESE 8 13 29.74 1007 10 16 N/A
4:35 am 04:35 Clear 62 16.7 55 12.5 76 76 SE 7 11 29.74 1007 10 16 N/A
4:55 am 04:55 Clear 63 17.2 55 12.8 76 76 SE 7 11 29.74 1007 10 16 N/A
5:15 am 05:15 Clear 62 16.6 55 12.7 78 78 SSE 6 9 29.74 1007 10 16 N/A
5:35 am 05:35 Clear 62 16.6 56 13.5 82 82 SSE 5 7 29.74 1007 10 16 N/A
5:55 am 05:55 Clear 63 17 57 14 83 83 SSE 8 13 29.71 1006 10 16 N/A
6:15 am 06:15 Clear 63 17 58 14.2 84 84 SSE 9 15 29.71 1006 10 16 N/A
6:35 am 06:35 Sunny 63 17.2 58 14.5 84 84 SSE 8 13 29.68 1005 10 16 N/A
6:55 am 06:55 Sunny 64 17.8 58 14.5 81 81 S 6 9 29.68 1005 10 16 N/A
7:15 am 07:15 Sunny 64 17.5 58 14.6 83 83 S 7 11 29.68 1005 10 16 N/A
7:35 am 07:35 Sunny 64 18 58 14.7 81 81 S 6 9 29.71 1006 10 16 N/A
7:55 am 07:55 Sunny 65 18.5 59 15 80 80 S 8 13 29.71 1006 10 16 N/A
8:15 am 08:15 Sunny 67 19.3 59 15 76 76 S 13 20 29.71 1006 10 16 N/A
8:35 am 08:35 Sunny 68 20 59 14.9 73 73 S 9 15 29.71 1006 10 16 N/A
8:55 am 08:55 Sunny 70 21.1 57 14.1 64 64 S 12 19 29.68 1005 10 16 N/A
9:15 am 09:15 Sunny 71 21.5 57 13.7 61 61 S 12 19 29.68 1005 10 16 N/A
9:35 am 09:35 Sunny 72 22.1 55 13 56 56 SSW 10 17 29.68 1005 10 16 N/A
9:55 am 09:55 Partly Cloudy 72 22.2 54 12.4 54 54 SSW 8 13 29.68 1005 10 16 N/A
10:15 am 10:15 Partly Cloudy 72 22.3 55 12.5 54 54 SSW 8 13 29.68 1005 10 16 N/A
10:35 am 10:35 Partly Cloudy 74 23.6 54 12.2 49 49 SSW 8 13 29.68 1005 10 16 N/A
10:55 am 10:55 Sunny 76 24.5 54 12.1 46 46 SW 7 11 29.62 1003 10 16 N/A
11:15 am 11:15 Sunny 76 24.5 53 11.8 45 45 WSW 7 11 29.68 1005 10 16 N/A
11:35 am 11:35 Sunny 76 24.2 52 11.3 44 44 SSW 3 6 29.68 1005 10 16 N/A
11:55 am 11:55 Sunny 77 24.9 53 11.6 43 43 SSW 5 7 29.65 1004 10 16 N/A
12:15 pm 12:15 Sunny 76 24.7 53 11.5 44 44 N N/A 29.65 1004 10 16 N/A
12:35 pm 12:35 Sunny 78 25.4 56 13.2 47 47 S 10 17 29.65 1004 10 16 N/A
12:55 pm 12:55 Sunny 78 25.4 55 12.9 46 46 SSE 8 13 29.62 1003 10 16 N/A
1:15 pm 13:15 Sunny 80 26.5 55 12.9 43 43 S 13 20 29.62 1003 10 16 N/A
1:35 pm 13:35 Sunny 81 27 56 13.1 42 42 SSE 9 15 29.62 1003 10 16 N/A
1:55 pm 13:55 Sunny 80 26.5 56 13.5 45 45 SSE 7 11 29.62 1003 10 16 N/A
2:15 pm 14:15 Sunny 80 26.6 55 12.7 42 42 S 10 17 29.59 1002 10 16 N/A
2:35 pm 14:35 Sunny 80 26.7 55 12.7 42 42 SSE 9 15 29.59 1002 10 16 N/A
2:55 pm 14:55 Sunny 82 28 55 12.7 39 39 S 15 24 29.56 1001 10 16 N/A
3:15 pm 15:15 Sunny 82 27.8 55 12.5 39 39 SE 13 20 29.56 1001 10 16 N/A
3:35 pm 15:35 Sunny 84 28.9 55 13 38 38 SSE 16 26 29.53 1000 10 16 N/A
3:55 pm 15:55 Sunny 86 30 53 11.6 32 32 S 15 24 29.53 1000 10 16 N/A
4:15 pm 16:15 Sunny 86 30.2 53 11.4 31 31 S 16 26 29.53 1000 10 16 N/A
4:35 pm 16:35 Sunny 86 30.1 51 10.8 30 30 S 17 28 29.53 1000 10 16 N/A
4:55 pm 16:55 Sunny 87 30.3 51 10.8 30 30 S 21 33 29.53 1000 10 16 N/A
5:15 pm 17:15 Sunny 87 30.5 52 11.1 30 30 S 17 28 29.50 999 10 16 N/A
5:35 pm 17:35 Sunny 86 30 50 9.9 29 29 S 16 26 29.50 999 10 16 N/A
5:55 pm 17:55 Sunny 86 29.8 51 10.8 31 31 S 17 28 29.50 999 10 16 N/A
6:15 pm 18:15 Sunny 87 30.8 53 11.9 31 31 S 20 31 29.50 999 10 16 N/A
6:35 pm 18:35 Sunny 86 30.2 55 12.6 34 34 S 17 28 29.50 999 10 16 N/A
6:55 pm 18:55 Sunny 85 29.4 55 13 36 36 SSE 17 28 29.47 998 10 16 N/A
7:15 pm 19:15 Sunny 84 28.7 56 13.5 39 39 S 14 22 29.47 998 10 16 N/A
7:35 pm 19:35 Mostly Cloudy 82 28 56 13.6 41 41 S 23 37 29.47 998 10 16 N/A
7:55 pm 19:55 Very Windy with Storms Likely 79 26.2 50 9.9 36 36 SSW 39 63 29.56 1001 10 16 0.01 0.25
8:15 pm 20:15 Partly Cloudy with Strong Thunderstorms 63 17.1 55 12.8 76 76 SSW 25 41 29.74 1007 2 2 N/A
8:35 pm 20:35 Cloudy with Thunderstorms 65 18.6 53 11.9 65 65 WSW 17 28 29.71 1006 3 4 N/A
8:55 pm 20:55 Cloudy with Thunderstorms 65 18.5 53 11.7 65 65 NNW 13 20 29.62 1003 10 16 N/A
9:15 pm 21:15 Cloudy with Thunderstorms 66 18.7 55 12.5 67 67 W 16 26 29.65 1004 10 16 0.02 0.51
9:35 pm 21:35 Cloudy with Strong Thunderstorms 62 16.9 57 13.7 82 82 WSW 5 7 29.74 1007 5 8 0.31 7.87
9:55 pm 21:55 Cloudy with Thunderstorms 63 17.3 55 12.8 75 75 NNW 8 13 29.68 1005 10 16 0.36 9.14
10:15 pm 22:15 Cloudy 62 16.7 56 13.6 82 82 NNE 5 7 29.71 1006 10 16 N/A
10:35 pm 22:35 Cloudy 63 17.2 56 13.6 80 80 E 9 15 29.65 1004 10 16 N/A
10:55 pm 22:55 Cloudy with Strong Thunderstorms 62 16.6 58 14.2 86 86 ESE 12 19 29.71 1006 10 16 0.03 0.76
11:15 pm 23:15 Mostly Clear with Thunderstorms 61 16 58 14.3 90 90 E 24 39 29.65 1004 5 8 0.12 3.05
11:35 pm 23:35 Mostly Cloudy with Light Rain 61 16.1 57 13.7 86 86 E 20 31 29.65 1004 10 16 0.13 3.30
11:55 pm 23:55 Partly Cloudy 61 16 57 13.9 87 87 E 13 20 29.65 1004 10 16 0.13 3.30

Powered by AerisWeather